Miscellaneous Local Product
Issued by NWS North Platte, NE

Home | Current Version | Previous Version | Text Only | Print | Product List | Glossary On
Versions: 1 2 3 4 5 6 7 8 9 10 11 12 13 14 15 16 17 18 19 20 21 22 23 24 25 26 27 28 29 30 31 32 33 34 35 36 37 38 39 40 41 42 43 44 45 46 47 48 49 50
000
AXUS43 KLBF 241210
MISLBF


WESTERN AND NORTH CENTRAL NEBRASKA HOURLY WEATHER ROUNDUP
NATIONAL WEATHER SERVICE NORTH PLATTE NE
700 AM CDT MON APR 24 2017

NOTE: "FAIR" INDICATES FEW OR NO CLOUDS BELOW 12,000 FEET WITH NO
SIGNIFICANT WEATHER AND/OR OBSTRUCTIONS TO VISIBILITY.

NOTE: STATIONS NOT REPORTING VARIABLES SUCH AS SKY/WEATHER OR
PRESSURE ARE PROVIDED BY RAWS AND APRS NETWORKS AND ARE NOT UNDER
NATIONAL WEATHER SERVICE QUALITY CONTROL.

...OBSERVATIONS IN AND NEAR THE EASTERN PANHANDLE OF NEBRASKA...

CITY           SKY/WX    TMP DP  RH WIND       PRES   REMARKS
PINE RIDGE     CLOUDY    43  41  93 N3        29.57R
CHADRON        CLOUDY    50  42  74 W15       29.58R
ALLIANCE       CLOUDY    41  38  89 NW5       29.58R
SIDNEY         CLOUDY    50  40  68 NW12      29.61S
CRESCENT LAKE    N/A     45  39  80 NW7         N/A
$$

...OBSERVATIONS IN NORTHERN NEBRASKA AND FAR SOUTHERN SOUTH DAKOTA...

CITY           SKY/WX    TMP DP  RH WIND       PRES   REMARKS
WINNER         FAIR      55  37  50 S18G25    29.51F
VALENTINE      CLOUDY    49  33  54 S8        29.53S
THEDFORD       CLOUDY    47  37  66 S3        29.57S
AINSWORTH      CLOUDY    48  38  68 S10       29.55R
O`NEILL        MOCLDY    53  33  47 S18       29.59F
ORD            CLOUDY    51  33  50 SE14      29.58F
BROKEN BOW     CLOUDY    51  35  54 S12       29.58R
VALENTINE NWR    N/A     49  34  57 S9          N/A
HALSEY           N/A     49  35  58 S8G16       N/A
BUTTE            N/A     52  37  56 S12G23      N/A
CHAMBERS         N/A     51  34  52 S10         N/A
EWING            N/A     51  37  58 S10G20      N/A
$$

...OBSERVATIONS IN SOUTHWEST NEBRASKA AND FAR NORTHEAST COLORADO...

CITY           SKY/WX    TMP DP  RH WIND       PRES   REMARKS
HOLYOKE        FAIR      52  41  66 NW14G23   29.59R
IMPERIAL       CLOUDY    43  37  79 NW7       29.55R
OGALLALA       CLOUDY    42  34  73 N6        29.56S
NORTH PLATTE   CLOUDY    48  36  63 SE6       29.55S
MCCOOK         CLOUDY    48  36  63 S8        29.53S
LEXINGTON      CLOUDY    50  34  55 S14G22    29.57R
STAPLETON        N/A     46  36  69 CALM        N/A
GOTHENBURG       N/A     50  34  54 SE9         N/A
CALLAWAY         N/A     47  36  65 S17         N/A
$$

...OBSERVATIONS IN CENTRAL LINCOLN COUNTY AREA...

CITY           SKY/WX    TMP DP  RH WIND       PRES   REMARKS
N.P. AIRPORT   CLOUDY    48  36  63 SE6       29.55S
N.P. DOWNTOWN    N/A     48  36  63 CALM        N/A
N.P. SOUTHEAST   N/A     48  36  62 SE3         N/A
N.P. HILLCREST   N/A     47  36  66 SE3         N/A
$$

...SOME OBSERVATIONS FROM AROUND THE REGION...

CITY           SKY/WX    TMP DP  RH WIND       PRES   REMARKS
DENVER         MOCLDY    43  36  76 SE10      29.67F
LIMON          PTCLDY    48  37  65 N18       29.68S
ASPEN          CLOUDY    37  36  96 CALM      29.85S
LARAMIE        CLEAR     34  30  85 NW9       29.75R WCI  27
CASPER         CLOUDY    32  31  96 W6        29.71F WCI  26
CHEYENNE       CLOUDY    42  34  73 NW8       29.71S
SCOTTSBLUFF    CLOUDY    52  39  61 W10       29.61S
GRAND ISLAND   CLOUDY    51  35  54 S18       29.65S
OMAHA          MOCLDY    54  36  50 S17       29.79R
SIOUX FALLS    CLOUDY    53  36  52 S20G28    29.65F
PIERRE         MOCLDY    39  36  89 NW14      29.51R WCI  31
RAPID CITY     FOG       37  36  96 N16       29.60R VSB 1/4 WCI  28
BISMARCK       LGT RAIN  33  32  96 NE13      29.66R WCI  24
KANSAS CITY    CLOUDY    44  37  76 S10       29.91R
HILL CITY      CLOUDY    53  37  54 S13G25    29.58S
WICHITA        CLOUDY    48  40  73 S15       29.83F
DODGE CITY     CLOUDY    49  36  61 S18G26    29.69F
OKLAHOMA CITY  PTCLDY    44  39  82 SE7       29.91F
DALLAS         PTCLDY    49  43  80 SW3       29.95R
AMARILLO       CLEAR     49  34  56 S18       29.79F
$$




USA.gov is the U.S. government's official web portal to all federal, state and local government web resources and services.